Location: Naloco
(16.5478°S, 37.1017°E)
Time: 01:24:04
(UTC+00:00)

IRS-1C Rocket - Pass Details

Date: 13 August 2020
Orbit: 800 x 806 km, 99.0° (Epoch: 23 September)

Event Time Altitude Azimuth Distance (km) Brightness Sun altitude
Rises 16:15:49 0° 169° (S) 3,335 7.1 -13.3°
Reaches altitude 10° 16:18:09 10° 169° (S) 2,399 6.3 -13.8°
Maximum altitude 16:23:28 84° 256° (WSW) 817 4.2 -15.1°
Drops below altitude 10° 16:28:44 10° 344° (NNW) 2,377 6.9 -16.3°
Sets 16:31:03 0° 345° (NNW) 3,302 7.6 -16.9°
